User: anonymous   Login
Location: Boiro
(42.6475°N, 8.8834°W)
Time: 21:43:11
(UTC+01:00)
Language:

M-CUBED/EXP-1 PRIME - Orbit

View from above orbital plane
View from above orbital plane
View from above satellite
View from above satellite

Ground track
Ground track

The orbit data is extracted from the following two-line orbital elements,

1 37855U 11061F   22019.40368688  .00007266  00000-0  34118-3 0  9995
2 37855 101.7182  60.2721 0162172 147.7859 213.3387 15.09283946558730
Epoch (UTC): 19 January 2022 09:41:18
Eccentricity: 0.0162172
inclination: 101.7182°
perigee height: 426 km
apogee height: 650 km
right ascension of ascending node: 60.2721°
argument of perigee: 147.7859°
revolutions per day: 15.09283946
mean anomaly at epoch: 213.3387°
orbit number at epoch: 55873

The dashed part of the orbit path shows where the satellite is in the earth's shadow,  

DLR